Regional Weather Roundup
Issued by NWS Midland/Odessa, TX

Skip options and go directly to product.
Home | Oldest Version | Previous Version | Current Version | All | Text Only | Save Text | Print | Product List | Glossary Off

Skip product version selection by date and time.   

817
ASUS44 KMAF 302110
RWRMAF
MIDLAND AREA WEATHER ROUNDUP
NATIONAL WEATHER SERVICE MIDLAND TX
400 PM CDT WED JUL 30 2014

...IN SOUTHWEST TEXAS AND SOUTHEAST NEW MEXICO...

CITY           SKY/WX    TMP DP  RH WIND       PRES   REMARKS
ALPINE         PTSUNNY   87  55  33 N20G26    30.17R
ANDREWS        FAIR     100  52  19 NW3       29.96F
ARTESIA        MOSUNNY   93  63  36 NE15G22   30.01S
BIG SPRING     MOSUNNY  101  53  19 SW13      29.96F
CARLSBAD       MOSUNNY  103  52  18 N14G21    29.95S HX 100
DRYDEN           N/A    105  51  16 CALM      29.91F HX 102
FORT STOCKTON  CLOUDY    96  55  25 SW22      29.97S
GUAD PASS      SUNNY     97  50  20 SW20G25   30.15F
HOBBS          MOSUNNY   99  50  19 N12G21    30.00F
MARFA          MOSUNNY   88  52  29 N25G37    30.15S
MIDLAND AIRPK  SUNNY    101  49  17 SE3       29.95F
MIDLAND INTL   SUNNY    100  54  21 VRB3      29.94F
ODESSA         SUNNY    101  48  16 VRB7      29.96F
PECOS          MOSUNNY  103  52  18 SE8       29.90F HX 100
PRESIDIO       FAIR     101  51  18 CALM      29.95F
SEMINOLE       SUNNY    100  53  20 NE15      29.98F
SNYDER         MOSUNNY   95  62  33 SE5       29.94F
WINK           SUNNY    102  49  16 VRB5      29.90F
$$
...OTHER STATIONS IN TEXAS...

CITY           SKY/WX    TMP DP  RH WIND       PRES   REMARKS
ABILENE        PTSUNNY   97  61  30 S13G20    29.94F
AMARILLO       PTSUNNY   78  62  57 N21G31    30.11R
AUSTIN         PTSUNNY   96  63  33 S9G18     29.94F
BROWNSVILLE    MOSUNNY   94  74  52 SE17G26   29.93F HX 104
CORPUS CHRISTI MOSUNNY   94  71  47 SE16      29.93F HX 101
DALLAS FTW     CLOUDY    86  71  60 SE14      29.96F
DEL RIO        SUNNY    102  55  20 SE16G22   29.88F HX 100
EL PASO        MOSUNNY   99  52  20 SW9       30.02F
HOUSTON INT    PTSUNNY   92  70  48 SE9       29.97F
LUBBOCK        PTSUNNY   93  64  38 N15       30.02S
SAN ANGELO     SUNNY    102  53  19 S12       29.92F HX 100
SAN ANTONIO    PTSUNNY   96  62  32 SE10G16   29.95F
WACO           MOSUNNY   92  69  47 S14       29.95F
WICHITA FALLS  NOT AVBL
$$
...OTHER LOCATIONS IN NEW MEXICO...

CITY           SKY/WX    TMP DP  RH WIND       PRES   REMARKS
ALAMAGORDO     MOSUNNY   95  50  21 N8G20     30.06S
ALBUQUERQUE    PTSUNNY   85  53  33 W6        30.18F
CANNON AFB     SUNNY     85  62  46 NE18G25   30.13S
CLOVIS         NOT AVBL
HOLLOMAN AFB   MOSUNNY   97  50  20 W13G18    30.03F
ROSWELL        SUNNY     92  64  39 N18       30.02S
RUIDOSO        MOSUNNY   79  54  41 NE9G22    30.30R
SANTA FE       PTSUNNY   78  52  40 W8        30.25S
TRUTH OR CONSE MOSUNNY   92  50  23 SW3       30.09F
TUCUMCARI      PTSUNNY   87  57  35 NE22G31   30.12S
$$

USA.gov is the U.S. government's official web portal to all federal, state and local government web resources and services.